Dothan, AL

8:50 AM CST on December 06, 2016 (GMT -0600)
Dothan Regional

Weather History for KDHN - November, 2013

Change the Weather History Date:

Wednesday, November 6, 2013

  Actual Average Record
Temperature  
Mean Temperature 68 °F 61 °F  
Max Temperature 76 °F 74 °F 86 °F (1938)
Min Temperature 60 °F 49 °F 30 °F (1962)
Degree Days  
Heating Degree Days 0 5  
Month to date heating degree days 20 29  
Since 1 July heating degree days 61 88  
Cooling Degree Days 2    
Growing Degree Days 18 (Base 50)    
Moisture  
Dew Point 59 °F    
Average Humidity 77    
Maximum Humidity 93    
Minimum Humidity 60    
Precipitation  
Precipitation 0.00 in 0.11 in 0.76 in (1951)
Month to date precipitation 0.66 0.53  
Year to date precipitation 67.49 45.92  
Sea Level Pressure  
Sea Level Pressure 30.20 in    
Wind  
Wind Speed 8 mph (East)    
Max Wind Speed 12 mph    
Max Gust Speed 17 mph    
Visibility 10 miles    
Events      
T = Trace of Precipitation, MM = Missing Value Source: NWS Daily Summary

Daily Weather History Graph

Daily Weather History Graph

Search for Another Location

Airport or City:

Trip Planner

Search our weather history database for the weather conditions in past years. The results will help you decide how hot, cold, wet, or windy it might be!

Date:

Astronomy

Nov. 06, 2013 Rise Set
Actual Time 6:01 AM CST 4:48 PM CST
Civil Twilight 5:36 AM CST 5:13 PM CST
Nautical Twilight 5:07 AM CST 5:42 PM CST
Astronomical Twilight 4:39 AM CST 6:11 PM CST
Moon 9:10 AM CST 7:57 PM CST
Length of Visible Light 11h 37m
Length of Day
10h 46m
Waxing Crescent, 14% of the Moon is Illuminated
Nov 6
Waxing Crescent
Nov 9
First Quarter
Nov 17
Full
Nov 25
Last Quarter
Dec 2
New

Hourly Weather History & Observations

Time (CST) Temp. Dew Point Humidity Pressure Visibility Wind Dir Wind Speed Gust Speed Precip Events Conditions
12:53 AM 61.0 °F 50.0 °F 67% 30.24 in 10.0 mi ENE 9.2 mph - N/A   Overcast
1:35 AM 60.8 °F 51.8 °F 72% 30.24 in 10.0 mi East 10.4 mph 17.3 mph N/A   Overcast
1:53 AM 61.0 °F 51.1 °F 70% 30.22 in 10.0 mi East 9.2 mph - N/A   Overcast
2:13 AM 60.8 °F 51.8 °F 72% 30.23 in 10.0 mi East 9.2 mph - N/A   Overcast
2:53 AM 61.0 °F 53.1 °F 75% 30.22 in 10.0 mi East 10.4 mph - N/A   Overcast
3:53 AM 60.1 °F 55.0 °F 83% 30.22 in 10.0 mi East 9.2 mph - N/A   Overcast
4:53 AM 60.1 °F 55.9 °F 86% 30.22 in 10.0 mi East 8.1 mph - N/A   Overcast
5:53 AM 60.1 °F 57.0 °F 90% 30.23 in 10.0 mi East 6.9 mph - N/A   Overcast
6:09 AM 60.8 °F 57.2 °F 88% 30.23 in 10.0 mi East 11.5 mph - N/A   Overcast
6:53 AM 61.0 °F 57.9 °F 90% 30.24 in 10.0 mi East 8.1 mph - N/A   Overcast
7:53 AM 61.0 °F 59.0 °F 93% 30.25 in 10.0 mi East 9.2 mph - N/A   Overcast
8:53 AM 63.0 °F 59.0 °F 87% 30.26 in 10.0 mi East 6.9 mph - N/A   Overcast
9:21 AM 64.4 °F 59.0 °F 83% 30.26 in 10.0 mi East 9.2 mph - N/A   Overcast
9:53 AM 64.9 °F 59.0 °F 81% 30.25 in 10.0 mi ESE 8.1 mph - N/A   Overcast
10:53 AM 66.9 °F 60.1 °F 79% 30.23 in 10.0 mi East 9.2 mph - N/A   Mostly Cloudy
11:15 AM 68.0 °F 60.8 °F 78% 30.22 in 10.0 mi East 6.9 mph - N/A   Overcast
11:53 AM 69.1 °F 60.1 °F 73% 30.20 in 10.0 mi East 5.8 mph - N/A   Mostly Cloudy
12:02 PM 69.8 °F 60.8 °F 73% 30.20 in 10.0 mi ESE 4.6 mph - N/A   Mostly Cloudy
12:36 PM 73.4 °F 60.8 °F 65% 30.19 in 10.0 mi East 5.8 mph - N/A   Mostly Cloudy
12:53 PM 73.0 °F 61.0 °F 66% 30.17 in 10.0 mi East 8.1 mph - N/A   Overcast
1:37 PM 73.4 °F 60.8 °F 65% 30.17 in 10.0 mi East 6.9 mph - N/A   Scattered Clouds
1:51 PM 73.4 °F 60.8 °F 65% 30.17 in 10.0 mi SE 4.6 mph - N/A   Mostly Cloudy
1:53 PM 75.0 °F 61.0 °F 62% 30.16 in 10.0 mi Variable 4.6 mph - N/A   Mostly Cloudy
2:35 PM 75.2 °F 60.8 °F 61% 30.16 in 10.0 mi Variable 5.8 mph - N/A   Scattered Clouds
2:53 PM 75.0 °F 60.1 °F 60% 30.14 in 10.0 mi SE 6.9 mph - N/A   Partly Cloudy
3:53 PM 73.0 °F 62.1 °F 68% 30.14 in 10.0 mi ESE 3.5 mph - N/A   Mostly Cloudy
4:53 PM 69.1 °F 62.1 °F 78% 30.15 in 10.0 mi SE 3.5 mph - N/A   Mostly Cloudy
5:53 PM 66.9 °F 62.1 °F 84% 30.15 in 10.0 mi East 3.5 mph - N/A   Mostly Cloudy
6:53 PM 66.9 °F 61.0 °F 81% 30.16 in 10.0 mi Calm Calm - N/A   Clear
7:53 PM 66.0 °F 61.0 °F 84% 30.16 in 10.0 mi East 5.8 mph - N/A   Overcast
8:53 PM 66.0 °F 61.0 °F 84% 30.15 in 10.0 mi East 4.6 mph - N/A   Clear
9:53 PM 64.9 °F 61.0 °F 87% 30.15 in 10.0 mi East 4.6 mph - N/A   Clear
10:53 PM 64.0 °F 61.0 °F 90% 30.13 in 10.0 mi ESE 5.8 mph - N/A   Clear
11:53 PM 64.0 °F 61.0 °F 90% 30.12 in 10.0 mi Calm Calm - N/A   Clear